timestamp,surface_pressure_avg,surface_temp_avg,battery_voltage,lat,long
2021-11-06 00:09:00+00:00,369.2362,8.8,12.65,47.84626,-54.09684
2021-11-06 00:19:00+00:00,365.9712,8.8,12.65,47.84626,-54.09684
2021-11-06 00:29:00+00:00,368.6713,8.73,12.65,47.84626,-54.09684
2021-11-06 00:39:00+00:00,365.6163,8.7,12.65,47.84626,-54.09684
2021-11-06 00:49:00+00:00,357.923,8.7,12.65,47.84626,-54.09684
2021-11-06 00:59:00+00:00,362.598,8.69,12.65,47.84626,-54.09684
2021-11-06 01:09:00+00:00,362.048,8.69,12.65,47.84626,-54.09684
2021-11-06 01:19:00+00:00,358.4546,8.78,12.65,47.84626,-54.09684
2021-11-06 01:29:00+00:00,348.0228,8.83,12.65,47.84626,-54.09684
2021-11-06 01:39:00+00:00,343.1763,8.89,12.65,47.84626,-54.09684
2021-11-06 01:49:00+00:00,342.2946,8.9,12.65,47.84626,-54.09684
2021-11-06 01:59:00+00:00,334.7396,8.9,12.65,47.84626,-54.09684
2021-11-06 02:09:00+00:00,334.0563,8.9,12.65,47.84626,-54.09684
2021-11-06 02:19:00+00:00,327.0629,8.9,12.65,47.84626,-54.09684
2021-11-06 02:29:00+00:00,315.613,8.9,12.65,47.84626,-54.09684
2021-11-06 02:39:00+00:00,304.5647,8.9,12.65,47.84626,-54.09684
2021-11-06 02:49:00+00:00,294.578,8.9,12.65,47.84626,-54.09684
2021-11-06 02:59:00+00:00,280.6714,8.9,12.65,47.84626,-54.09684
2021-11-06 03:09:00+00:00,270.8847,8.8,12.65,47.84626,-54.09684
2021-11-06 03:19:01+00:00,266.7364,8.66,12.65,47.84626,-54.09684
2021-11-06 03:29:01+00:00,258.4764,8.6,12.65,47.84626,-54.09684
2021-11-06 03:39:01+00:00,247.4264,8.6,12.65,47.84626,-54.09684
2021-11-06 03:49:01+00:00,240.2698,8.59,12.65,47.84626,-54.09684
2021-11-06 03:59:01+00:00,230.2281,8.59,12.65,47.84626,-54.09684
2021-11-06 04:09:01+00:00,218.7148,8.6,12.65,47.84626,-54.09684
2021-11-06 04:19:00+00:00,214.9048,8.6,12.65,47.84626,-54.09684
2021-11-06 04:29:00+00:00,209.2681,8.6,12.65,47.84626,-54.09684
2021-11-06 04:39:00+00:00,192.0098,8.6,12.65,47.84626,-54.09684
2021-11-06 04:49:00+00:00,182.3681,8.61,12.65,47.84626,-54.09684
2021-11-06 04:59:00+00:00,181.0281,8.6,12.65,47.84626,-54.09684
2021-11-06 05:09:00+00:00,172.9198,8.6,12.65,47.84626,-54.09684
2021-11-06 05:19:00+00:00,167.8915,8.66,12.57,47.84626,-54.09684
2021-11-06 05:29:00+00:00,170.6949,8.69,12.57,47.84626,-54.09684
2021-11-06 05:39:00+00:00,168.6048,8.7,12.57,47.84626,-54.09684
2021-11-06 05:49:00+00:00,161.7065,8.7,12.57,47.84626,-54.09684
2021-11-06 05:59:00+00:00,167.0132,8.7,12.57,47.84626,-54.09684
2021-11-06 06:09:00+00:00,175.1864,8.7,12.57,47.84626,-54.09684
2021-11-06 06:19:00+00:00,170.5482,8.72,12.57,47.84626,-54.09684
2021-11-06 06:29:00+00:00,168.1965,8.76,12.57,47.84626,-54.09684
2021-11-06 06:39:00+00:00,180.5415,8.76,12.57,47.84626,-54.09684
2021-11-06 06:49:00+00:00,192.3114,8.79,12.57,47.84626,-54.09684
2021-11-06 06:59:00+00:00,190.3732,8.75,12.57,47.84626,-54.09684
2021-11-06 07:09:00+00:00,191.7548,8.7,12.57,47.84626,-54.09684
2021-11-06 07:19:00+00:00,207.1364,8.73,12.57,47.84626,-54.09684
2021-11-06 07:29:00+00:00,216.1148,8.8,12.57,47.84626,-54.09684
2021-11-06 07:39:00+00:00,211.6464,8.8,12.57,47.84626,-54.09684
2021-11-06 07:49:00+00:00,211.3564,8.8,12.57,47.84626,-54.09684
2021-11-06 07:59:00+00:00,222.7881,8.85,12.57,47.84626,-54.09684
2021-11-06 08:09:00+00:00,224.6248,9.04,12.57,47.84626,-54.09684
2021-11-06 08:19:00+00:00,218.0265,8.94,12.57,47.84626,-54.09684
2021-11-06 08:29:00+00:00,230.0764,8.99,12.57,47.84626,-54.09684
2021-11-06 08:39:00+00:00,241.4998,9.0,12.57,47.84626,-54.09684
2021-11-06 08:49:00+00:00,235.3331,9.0,12.57,47.84626,-54.09684
2021-11-06 08:59:00+00:00,237.8731,9.0,12.57,47.84626,-54.09684
2021-11-06 09:09:00+00:00,257.8264,9.0,12.57,47.84626,-54.09684
2021-11-06 09:19:00+00:00,265.9398,9.0,12.57,47.84626,-54.09684
2021-11-06 09:29:00+00:00,265.5382,8.99,12.57,47.84626,-54.09684
2021-11-06 09:39:00+00:00,270.1047,8.9,12.57,47.84626,-54.09684
2021-11-06 09:49:00+00:00,288.7347,9.45,12.57,47.84626,-54.09684
2021-11-06 09:59:00+00:00,303.748,9.0,12.57,47.84626,-54.09684
2021-11-06 10:09:00+00:00,312.653,8.97,12.57,47.84626,-54.09684
2021-11-06 10:19:00+00:00,321.5763,9.15,12.57,47.84626,-54.09684
2021-11-06 10:29:00+00:00,333.0446,9.47,12.57,47.84626,-54.09684
2021-11-06 10:39:00+00:00,340.9781,9.5,12.57,47.84626,-54.09684
2021-11-06 10:49:00+00:00,348.6896,9.5,12.57,47.84626,-54.09684
2021-11-06 10:59:00+00:00,360.9763,9.5,12.57,47.84626,-54.09684
2021-11-06 11:09:00+00:00,364.6664,9.5,12.57,47.84626,-54.09684
2021-11-06 11:19:00+00:00,361.8897,9.5,12.57,47.84626,-54.09684
2021-11-06 11:29:00+00:00,371.6013,9.55,12.57,47.84626,-54.09684
2021-11-06 11:39:00+00:00,384.2496,9.68,12.57,47.84626,-54.09684
2021-11-06 11:49:00+00:00,384.7994,9.7,12.57,47.84626,-54.09684
2021-11-06 11:59:00+00:00,386.9763,9.57,12.57,47.84626,-54.09684
2021-11-06 12:09:00+00:00,391.3081,9.52,12.57,47.84626,-54.09684
2021-11-06 12:19:00+00:00,383.4462,9.6,14.48,47.84626,-54.09684
2021-11-06 12:29:00+00:00,383.8229,9.79,14.48,47.84626,-54.09684
2021-11-06 12:39:00+00:00,399.5196,9.87,14.48,47.84626,-54.09684
2021-11-06 12:49:00+00:00,399.9263,9.8,14.48,47.84626,-54.09684
2021-11-06 12:59:00+00:00,386.1562,9.57,14.48,47.84626,-54.09684
2021-11-06 13:09:00+00:00,391.3812,9.66,14.48,47.84626,-54.09684
2021-11-06 13:19:00+00:00,403.8561,9.7,14.72,47.84626,-54.09684
2021-11-06 13:29:00+00:00,389.1663,9.7,14.72,47.84626,-54.09684
2021-11-06 13:39:00+00:00,377.1097,9.87,14.72,47.84626,-54.09684
2021-11-06 13:49:00+00:00,387.7546,9.89,14.72,47.84626,-54.09684
2021-11-06 13:59:00+00:00,386.0496,9.84,14.72,47.84626,-54.09684
2021-11-06 14:09:00+00:00,369.1663,9.7,14.72,47.84626,-54.09684
2021-11-06 14:19:00+00:00,366.8296,9.8,14.64,47.84626,-54.09684
2021-11-06 14:29:00+00:00,368.2897,9.8,14.64,47.84626,-54.09684
2021-11-06 14:39:00+00:00,353.3113,9.64,14.64,47.84626,-54.09684
2021-11-06 14:49:00+00:00,338.2363,9.4,14.64,47.84626,-54.09684
2021-11-06 14:59:00+00:00,337.0563,9.5,14.64,47.84626,-54.09684
2021-11-06 15:09:00+00:00,327.6613,9.76,14.64,47.84626,-54.09684
2021-11-06 15:19:00+00:00,307.8064,9.57,14.64,47.84626,-54.09684
2021-11-06 15:29:00+00:00,300.5179,9.48,14.64,47.84626,-54.09684
2021-11-06 15:39:00+00:00,293.0646,9.74,14.64,47.84626,-54.09684
2021-11-06 15:49:00+00:00,277.6747,9.63,14.64,47.84626,-54.09684
2021-11-06 15:59:00+00:00,264.7381,9.4,14.64,47.84626,-54.09684
2021-11-06 16:09:00+00:00,261.6047,9.4,14.64,47.84626,-54.09684
2021-11-06 16:19:00+00:00,250.3181,9.56,14.08,47.84626,-54.09684
2021-11-06 16:29:00+00:00,233.7047,9.6,14.08,47.84626,-54.09684
2021-11-06 16:39:00+00:00,227.75799999999998,9.61,14.08,47.84626,-54.09684
2021-11-06 16:49:00+00:00,225.8031,9.7,14.08,47.84626,-54.09684
2021-11-06 16:59:00+00:00,212.3631,9.7,14.08,47.84626,-54.09684
2021-11-06 17:09:00+00:00,202.0048,9.7,14.08,47.84626,-54.09684
2021-11-06 17:19:00+00:00,200.5381,9.7,13.92,47.84626,-54.09684
2021-11-06 17:29:00+00:00,192.6381,9.7,13.92,47.84626,-54.09684
2021-11-06 17:39:00+00:00,177.7881,9.71,13.92,47.84626,-54.09684
2021-11-06 17:49:00+00:00,175.6297,9.76,13.92,47.84626,-54.09684
2021-11-06 17:59:00+00:00,178.9482,9.79,13.92,47.84626,-54.09684
2021-11-06 18:09:00+00:00,171.7581,9.8,13.92,47.84626,-54.09684
2021-11-06 18:19:00+00:00,167.1498,9.8,13.76,47.84626,-54.09684
2021-11-06 18:29:00+00:00,167.0065,9.86,13.76,47.84626,-54.09684
2021-11-06 18:39:00+00:00,168.5548,9.89,13.76,47.84626,-54.09684
2021-11-06 18:49:00+00:00,171.2198,9.9,13.76,47.84626,-54.09684
2021-11-06 18:59:00+00:00,176.5248,9.9,13.76,47.84626,-54.09684
2021-11-06 19:09:00+00:00,175.7014,9.9,13.76,47.84626,-54.09684
2021-11-06 19:19:00+00:00,177.7998,9.9,13.76,47.84626,-54.09684
2021-11-06 19:29:00+00:00,192.0298,9.9,13.76,47.84626,-54.09684
2021-11-06 19:39:00+00:00,196.7598,9.9,13.76,47.84626,-54.09684
2021-11-06 19:49:00+00:00,191.2748,9.9,13.76,47.84626,-54.09684
2021-11-06 19:59:00+00:00,195.3148,9.9,13.76,47.84626,-54.09684
2021-11-06 20:09:00+00:00,212.5248,9.9,13.76,47.84626,-54.09684
2021-11-06 20:19:00+00:00,221.0448,9.88,13.29,47.84626,-54.09684
2021-11-06 20:29:00+00:00,214.0081,9.85,13.29,47.84626,-54.09684
2021-11-06 20:39:00+00:00,216.2281,9.8,13.29,47.84626,-54.09684
2021-11-06 20:49:00+00:00,228.0981,9.8,13.29,47.84626,-54.09684
2021-11-06 20:59:00+00:00,230.3031,9.8,13.29,47.84626,-54.09684
2021-11-06 21:09:00+00:00,231.2931,9.8,13.29,47.84626,-54.09684
2021-11-06 21:19:00+00:00,239.3931,9.8,12.97,47.84626,-54.09684
2021-11-06 21:29:00+00:00,246.633,9.8,12.97,47.84626,-54.09684
2021-11-06 21:39:00+00:00,247.8581,9.8,12.97,47.84626,-54.09684
2021-11-06 21:49:00+00:00,252.2697,9.79,12.97,47.84626,-54.09684
2021-11-06 21:59:00+00:00,268.3364,9.75,12.97,47.84626,-54.09684
2021-11-06 22:09:00+00:00,275.3181,9.7,12.97,47.84626,-54.09684
2021-11-06 22:19:00+00:00,278.5647,9.7,12.65,47.84626,-54.09684
2021-11-06 22:29:00+00:00,287.7347,9.62,12.65,47.84626,-54.09684
2021-11-06 22:39:00+00:00,301.0596,9.6,12.65,47.84626,-54.09684
2021-11-06 22:49:00+00:00,308.448,9.5,12.65,47.84626,-54.09684
2021-11-06 22:59:00+00:00,317.39799999999997,9.5,12.65,47.84626,-54.09684
2021-11-06 23:09:00+00:00,328.298,9.5,12.65,47.84626,-54.09684
2021-11-06 23:19:00+00:00,339.1846,9.5,12.65,47.84626,-54.09684
2021-11-06 23:29:00+00:00,347.4913,9.5,12.65,47.84626,-54.09684
2021-11-06 23:39:00+00:00,354.0646,9.5,12.65,47.84626,-54.09684
2021-11-06 23:49:00+00:00,358.4513,9.51,12.65,47.84626,-54.09684
2021-11-06 23:59:00+00:00,364.1329,9.54,12.65,47.84626,-54.09684
